﻿測定場所 (Monitoring sites),日付 (Measurement date),時間 (Measurement time),線量率 最大値 (max) μGy/h,線量率 最小値 (min) μGy/h,線量率 平均値 (average) μGy/h,
大田 (Ota),2016-01-24,23:01～24:00,0.0412,0.0358,0.0380,
大田 (Ota),2016-01-24,22:01～23:00,0.0415,0.0351,0.0382,
大田 (Ota),2016-01-24,21:01～22:00,0.0417,0.0359,0.0379,
大田 (Ota),2016-01-24,20:01～21:00,0.0407,0.0355,0.0378,
大田 (Ota),2016-01-24,19:01～20:00,0.0425,0.0353,0.0380,
大田 (Ota),2016-01-24,18:01～19:00,0.0410,0.0361,0.0380,
大田 (Ota),2016-01-24,17:01～18:00,0.0427,0.0352,0.0382,
大田 (Ota),2016-01-24,16:01～17:00,0.0417,0.0351,0.0384,
大田 (Ota),2016-01-24,15:01～16:00,0.0414,0.0363,0.0382,
大田 (Ota),2016-01-24,14:01～15:00,0.0408,0.0353,0.0379,
大田 (Ota),2016-01-24,13:01～14:00,0.0409,0.0362,0.0385,
大田 (Ota),2016-01-24,12:01～13:00,0.0414,0.0362,0.0384,
大田 (Ota),2016-01-24,11:01～12:00,0.0411,0.0365,0.0383,
大田 (Ota),2016-01-24,10:01～11:00,0.0415,0.0364,0.0387,
大田 (Ota),2016-01-24,09:01～10:00,0.0415,0.0359,0.0389,
大田 (Ota),2016-01-24,08:01～09:00,0.0417,0.0354,0.0382,
大田 (Ota),2016-01-24,07:01～08:00,0.0414,0.0357,0.0381,
大田 (Ota),2016-01-24,06:01～07:00,0.0416,0.0364,0.0383,
大田 (Ota),2016-01-24,05:01～06:00,0.0409,0.0363,0.0383,
大田 (Ota),2016-01-24,04:01～05:00,0.0435,0.0359,0.0385,
大田 (Ota),2016-01-24,03:01～04:00,0.0422,0.0349,0.0380,
大田 (Ota),2016-01-24,02:01～03:00,0.0415,0.0356,0.0380,
大田 (Ota),2016-01-24,01:01～02:00,0.0402,0.0361,0.0376,
大田 (Ota),2016-01-24,00:01～01:00,0.0405,0.0358,0.0378,
大田 (Ota),2016-01-23,23:01～24:00,0.0404,0.0360,0.0381,
大田 (Ota),2016-01-23,22:01～23:00,0.0411,0.0356,0.0376,
大田 (Ota),2016-01-23,21:01～22:00,0.0405,0.0354,0.0376,
大田 (Ota),2016-01-23,20:01～21:00,0.0409,0.0351,0.0378,
大田 (Ota),2016-01-23,19:01～20:00,0.0400,0.0358,0.0379,
大田 (Ota),2016-01-23,18:01～19:00,0.0411,0.0348,0.0380,
大田 (Ota),2016-01-23,17:01～18:00,0.0413,0.0359,0.0383,
大田 (Ota),2016-01-23,16:01～17:00,0.0415,0.0363,0.0379,
大田 (Ota),2016-01-23,15:01～16:00,0.0407,0.0357,0.0377,
大田 (Ota),2016-01-23,14:01～15:00,0.0418,0.0357,0.0379,
大田 (Ota),2016-01-23,13:01～14:00,0.0403,0.0344,0.0377,
大田 (Ota),2016-01-23,12:01～13:00,0.0410,0.0353,0.0378,
大田 (Ota),2016-01-23,11:01～12:00,0.0409,0.0359,0.0377,
大田 (Ota),2016-01-23,10:01～11:00,0.0408,0.0350,0.0381,
大田 (Ota),2016-01-23,09:01～10:00,0.0424,0.0359,0.0377,
大田 (Ota),2016-01-23,08:01～09:00,0.0414,0.0361,0.0379,
大田 (Ota),2016-01-23,07:01～08:00,0.0417,0.0359,0.0379,
大田 (Ota),2016-01-23,06:01～07:00,0.0421,0.0359,0.0378,
大田 (Ota),2016-01-23,05:01～06:00,0.0407,0.0358,0.0376,
大田 (Ota),2016-01-23,04:01～05:00,0.0403,0.0359,0.0375,
大田 (Ota),2016-01-23,03:01～04:00,0.0410,0.0354,0.0375,
大田 (Ota),2016-01-23,02:01～03:00,0.0405,0.0359,0.0376,
大田 (Ota),2016-01-23,01:01～02:00,0.0411,0.0352,0.0377,
大田 (Ota),2016-01-23,00:01～01:00,0.0422,0.0358,0.0375,
大田 (Ota),2016-01-22,23:01～24:00,0.0404,0.0356,0.0375,
大田 (Ota),2016-01-22,22:01～23:00,0.0410,0.0356,0.0374,
大田 (Ota),2016-01-22,21:01～22:00,0.0403,0.0356,0.0373,
大田 (Ota),2016-01-22,20:01～21:00,0.0407,0.0356,0.0374,
大田 (Ota),2016-01-22,19:01～20:00,0.0416,0.0353,0.0376,
大田 (Ota),2016-01-22,18:01～19:00,0.0407,0.0354,0.0374,
大田 (Ota),2016-01-22,17:01～18:00,0.0420,0.0357,0.0378,
大田 (Ota),2016-01-22,16:01～17:00,0.0408,0.0353,0.0375,
大田 (Ota),2016-01-22,15:01～16:00,0.0410,0.0359,0.0382,
大田 (Ota),2016-01-22,14:01～15:00,0.0433,0.0360,0.0381,
大田 (Ota),2016-01-22,13:01～14:00,0.0410,0.0358,0.0382,
大田 (Ota),2016-01-22,12:01～13:00,0.0415,0.0358,0.0382,
大田 (Ota),2016-01-22,11:01～12:00,0.0413,0.0355,0.0381,
大田 (Ota),2016-01-22,10:01～11:00,0.0411,0.0359,0.0384,
大田 (Ota),2016-01-22,09:01～10:00,0.0410,0.0360,0.0376,
大田 (Ota),2016-01-22,08:01～09:00,0.0400,0.0352,0.0373,
大田 (Ota),2016-01-22,07:01～08:00,0.0403,0.0356,0.0374,
大田 (Ota),2016-01-22,06:01～07:00,0.0410,0.0354,0.0377,
大田 (Ota),2016-01-22,05:01～06:00,0.0398,0.0359,0.0377,
大田 (Ota),2016-01-22,04:01～05:00,0.0404,0.0353,0.0375,
大田 (Ota),2016-01-22,03:01～04:00,0.0401,0.0357,0.0374,
大田 (Ota),2016-01-22,02:01～03:00,0.0413,0.0350,0.0373,
大田 (Ota),2016-01-22,01:01～02:00,0.0418,0.0353,0.0374,
大田 (Ota),2016-01-22,00:01～01:00,0.0406,0.0351,0.0377,
大田 (Ota),2016-01-21,23:01～24:00,0.0406,0.0356,0.0377,
大田 (Ota),2016-01-21,22:01～23:00,0.0406,0.0358,0.0379,
大田 (Ota),2016-01-21,21:01～22:00,0.0408,0.0355,0.0378,
大田 (Ota),2016-01-21,20:01～21:00,0.0407,0.0353,0.0375,
大田 (Ota),2016-01-21,19:01～20:00,0.0409,0.0357,0.0377,
大田 (Ota),2016-01-21,18:01～19:00,0.0410,0.0356,0.0374,
大田 (Ota),2016-01-21,17:01～18:00,0.0411,0.0355,0.0375,
大田 (Ota),2016-01-21,16:01～17:00,0.0407,0.0355,0.0377,
大田 (Ota),2016-01-21,15:01～16:00,0.0407,0.0360,0.0378,
大田 (Ota),2016-01-21,14:01～15:00,0.0415,0.0361,0.0381,
大田 (Ota),2016-01-21,13:01～14:00,0.0409,0.0358,0.0376,
大田 (Ota),2016-01-21,12:01～13:00,0.0418,0.0360,0.0378,
大田 (Ota),2016-01-21,11:01～12:00,0.0414,0.0357,0.0382,
大田 (Ota),2016-01-21,10:01～11:00,0.0433,0.0355,0.0382,
大田 (Ota),2016-01-21,09:01～10:00,0.0411,0.0363,0.0380,
大田 (Ota),2016-01-21,08:01～09:00,0.0428,0.0355,0.0380,
大田 (Ota),2016-01-21,07:01～08:00,0.0401,0.0358,0.0378,
大田 (Ota),2016-01-21,06:01～07:00,0.0398,0.0353,0.0373,
大田 (Ota),2016-01-21,05:01～06:00,0.0406,0.0347,0.0373,
大田 (Ota),2016-01-21,04:01～05:00,0.0415,0.0353,0.0374,
大田 (Ota),2016-01-21,03:01～04:00,0.0401,0.0358,0.0374,
大田 (Ota),2016-01-21,02:01～03:00,0.0404,0.0347,0.0372,
大田 (Ota),2016-01-21,01:01～02:00,0.0392,0.0356,0.0371,
大田 (Ota),2016-01-21,00:01～01:00,0.0394,0.0350,0.0369,
大田 (Ota),2016-01-20,23:01～24:00,0.0404,0.0345,0.0370,
大田 (Ota),2016-01-20,22:01～23:00,0.0409,0.0344,0.0373,
大田 (Ota),2016-01-20,21:01～22:00,0.0421,0.0352,0.0372,
大田 (Ota),2016-01-20,20:01～21:00,0.0404,0.0350,0.0372,
大田 (Ota),2016-01-20,19:01～20:00,0.0409,0.0348,0.0371,
大田 (Ota),2016-01-20,18:01～19:00,0.0403,0.0346,0.0366,
大田 (Ota),2016-01-20,17:01～18:00,0.0399,0.0357,0.0374,
大田 (Ota),2016-01-20,16:01～17:00,0.0409,0.0356,0.0374,
大田 (Ota),2016-01-20,15:01～16:00,0.0398,0.0356,0.0372,
大田 (Ota),2016-01-20,14:01～15:00,0.0405,0.0354,0.0374,
大田 (Ota),2016-01-20,13:01～14:00,0.0428,0.0357,0.0386,
大田 (Ota),2016-01-20,12:01～13:00,0.0431,0.0365,0.0386,
大田 (Ota),2016-01-20,11:01～12:00,0.0425,0.0362,0.0389,
大田 (Ota),2016-01-20,10:01～11:00,0.0428,0.0354,0.0388,
大田 (Ota),2016-01-20,09:01～10:00,0.0422,0.0358,0.0385,
大田 (Ota),2016-01-20,08:01～09:00,0.0435,0.0360,0.0384,
大田 (Ota),2016-01-20,07:01～08:00,0.0409,0.0356,0.0375,
大田 (Ota),2016-01-20,06:01～07:00,0.0437,0.0352,0.0378,
大田 (Ota),2016-01-20,05:01～06:00,0.0427,0.0354,0.0379,
大田 (Ota),2016-01-20,04:01～05:00,0.0411,0.0358,0.0379,
大田 (Ota),2016-01-20,03:01～04:00,0.0404,0.0355,0.0375,
大田 (Ota),2016-01-20,02:01～03:00,0.0409,0.0354,0.0375,
大田 (Ota),2016-01-20,01:01～02:00,0.0398,0.0359,0.0376,
大田 (Ota),2016-01-20,00:01～01:00,0.0406,0.0354,0.0375,
大田 (Ota),2016-01-19,23:01～24:00,0.0404,0.0353,0.0375,
大田 (Ota),2016-01-19,22:01～23:00,0.0412,0.0351,0.0373,
大田 (Ota),2016-01-19,21:01～22:00,0.0398,0.0350,0.0374,
大田 (Ota),2016-01-19,20:01～21:00,0.0408,0.0351,0.0374,
大田 (Ota),2016-01-19,19:01～20:00,0.0404,0.0356,0.0374,
大田 (Ota),2016-01-19,18:01～19:00,0.0410,0.0354,0.0375,
大田 (Ota),2016-01-19,17:01～18:00,0.0414,0.0353,0.0378,
大田 (Ota),2016-01-19,16:01～17:00,0.0416,0.0361,0.0378,
大田 (Ota),2016-01-19,15:01～16:00,0.0416,0.0351,0.0374,
大田 (Ota),2016-01-19,14:01～15:00,0.0405,0.0356,0.0375,
大田 (Ota),2016-01-19,13:01～14:00,0.0423,0.0357,0.0380,
大田 (Ota),2016-01-19,12:01～13:00,0.0402,0.0356,0.0374,
大田 (Ota),2016-01-19,11:01～12:00,0.0406,0.0356,0.0374,
大田 (Ota),2016-01-19,10:01～11:00,0.0404,0.0351,0.0378,
大田 (Ota),2016-01-19,09:01～10:00,0.0412,0.0357,0.0377,
大田 (Ota),2016-01-19,08:01～09:00,0.0415,0.0354,0.0375,
大田 (Ota),2016-01-19,07:01～08:00,0.0406,0.0359,0.0380,
大田 (Ota),2016-01-19,06:01～07:00,0.0414,0.0343,0.0376,
大田 (Ota),2016-01-19,05:01～06:00,0.0404,0.0349,0.0374,
大田 (Ota),2016-01-19,04:01～05:00,0.0410,0.0354,0.0379,
大田 (Ota),2016-01-19,03:01～04:00,0.0406,0.0356,0.0375,
大田 (Ota),2016-01-19,02:01～03:00,0.0418,0.0356,0.0377,
大田 (Ota),2016-01-19,01:01～02:00,0.0425,0.0360,0.0380,
大田 (Ota),2016-01-19,00:01～01:00,0.0407,0.0360,0.0376,
大田 (Ota),2016-01-18,23:01～24:00,0.0408,0.0351,0.0378,
大田 (Ota),2016-01-18,22:01～23:00,0.0410,0.0358,0.0379,
大田 (Ota),2016-01-18,21:01～22:00,0.0402,0.0354,0.0376,
大田 (Ota),2016-01-18,20:01～21:00,0.0413,0.0356,0.0376,
大田 (Ota),2016-01-18,19:01～20:00,0.0398,0.0356,0.0373,
大田 (Ota),2016-01-18,18:01～19:00,0.0408,0.0346,0.0372,
大田 (Ota),2016-01-18,17:01～18:00,0.0409,0.0358,0.0378,
大田 (Ota),2016-01-18,16:01～17:00,0.0405,0.0353,0.0373,
大田 (Ota),2016-01-18,15:01～16:00,0.0421,0.0353,0.0384,
大田 (Ota),2016-01-18,14:01～15:00,0.0439,0.0361,0.0404,
大田 (Ota),2016-01-18,13:01～14:00,0.0481,0.0405,0.0441,
大田 (Ota),2016-01-18,12:01～13:00,0.0500,0.0429,0.0469,
大田 (Ota),2016-01-18,11:01～12:00,0.0559,0.0458,0.0514,
大田 (Ota),2016-01-18,10:01～11:00,0.0577,0.0466,0.0508,
大田 (Ota),2016-01-18,09:01～10:00,0.0574,0.0480,0.0527,
大田 (Ota),2016-01-18,08:01～09:00,0.0562,0.0491,0.0520,
大田 (Ota),2016-01-18,07:01～08:00,0.0539,0.0461,0.0501,
大田 (Ota),2016-01-18,06:01～07:00,0.0537,0.0466,0.0498,
大田 (Ota),2016-01-18,05:01～06:00,0.0600,0.0491,0.0542,
大田 (Ota),2016-01-18,04:01～05:00,0.0653,0.0550,0.0602,
大田 (Ota),2016-01-18,03:01～04:00,0.0688,0.0565,0.0615,
大田 (Ota),2016-01-18,02:01～03:00,0.0701,0.0600,0.0643,
大田 (Ota),2016-01-18,01:01～02:00,0.0697,0.0610,0.0658,
大田 (Ota),2016-01-18,00:01～01:00,0.0671,0.0555,0.0610,
